Regional Weather Roundup
Issued by NWS Upton, NY

Current Version | Previous Version | Graphics & Text | Print | Product List | Glossary Off
Versions: 1 2 3 4 5 6 7 8 9 10 11 12 13 14 15 16 17 18 19 20 21 22 23 24 25 26 27 28 29 30 31 32 33 34 35 36 37 38 39 40 41 42 43 44 45 46 47 48 49 50

000
ASUS41 KOKX 270418
RWROKX

REGIONAL WEATHER ROUNDUP
NATIONAL WEATHER SERVICE NEW YORK NY
1200 AM EDT WED MAY 27 2015

NOTE: "FAIR" INDICATES FEW OR NO CLOUDS BELOW 12,000 FEET WITH NO
SIGNIFICANT WEATHER AND/OR OBSTRUCTIONS TO VISIBILITY.

NYZ071-072-176-178-NJZ106-104-270500-
NEW YORK CITY METRO AREA


CITY           SKY/WX    TMP DP  RH WIND       PRES   REMARKS
CENTRAL PARK   MOCLDY    74  61  63 VRB5      30.19S
LAGUARDIA APRT MOCLDY    74  61  63 SW10      30.16S
KENNEDY INTL   CLOUDY    63  57  81 SW8       30.18S
NEWARK/LIBERTY MOCLDY    74  63  68 SW16G24   30.16S
BRNX BOT. GARD   N/A    N/A N/A N/A CALM      30.16F
TETERBORO      MOCLDY    75  62  64 S13       30.15R
$$

NYZ177-179-078>081-270500-
LONG ISLAND NEW YORK

CITY           SKY/WX    TMP DP  RH WIND       PRES   REMARKS
FARMINGDALE    PTCLDY    65  60  84 SW13      30.19S
ISLIP          MOCLDY    66  60  81 SW16G25   30.18S
SHIRLEY        CLEAR     65  59  81 SW10G21   30.21S
WESTHAMPTON    CLEAR     63  59  87 SW10G18   30.22S
MONTAUK POINT    N/A     61  58  90 SW9G16    30.23R
$$

NYZ052-065-067-270500-
HUDSON VALLEY

CITY           SKY/WX    TMP DP  RH WIND       PRES   REMARKS
WHITE PLAINS   PTCLDY    66  60  81 SE3       30.16S
NEWBURGH       PTCLDY    73  66  78 VRB3      30.15R
MONTGOMERY     FOG       66  66 100 CALM      30.13S VSB 1/2
POUGHKEEPSIE   PTCLDY    70  63  78 SE5       30.13R
ALBANY         MOCLDY    76  65  68 S10       30.10S
$$

NJZ001-105-106-008-010-013-015-019>022-104-270500-
NEW JERSEY

CITY           SKY/WX    TMP DP  RH WIND       PRES   REMARKS
NEWARK/LIBERTY MOCLDY    74  63  68 SW16G24   30.16S
TETERBORO      MOCLDY    75  62  64 S13       30.15R
CALDWELL       PTCLDY    74  62  66 SW5       30.16R
MORRISTOWN     PTCLDY    75  63  64 S5        30.16S
SOMERVILLE     CLEAR     72  63  73 S5        30.15R
SUSSEX         CLEAR     72  61  68 CALM      30.17R
ANDOVER          N/A     72  63  73 CALM      30.16S
TRENTON        CLEAR     72  63  73 S10       30.17S
MILLVILLE      CLEAR     69  64  84 VRB6      30.20F
ATLANTIC CITY  PTCLDY    69  61  75 S17G25    30.20F
WRIGHTSTOWN    MOCLDY    69  63  80 S9        30.16F
TOMS RIVER     MOCLDY   N/A N/A N/A S10       30.20S
BELMAR         MOCLDY    70  57  64 S8        30.19F
$$

PAZ047>061-062-071-270500-
EASTERN PENNSYLVANIA

CITY           SKY/WX    TMP DP  RH WIND       PRES   REMARKS
PHILADELPHIA   PTCLDY    74  63  68 SW9       30.18S
ALLENTOWN      CLEAR     76  65  68 SW7       30.16R
SCRANTON       PTCLDY    75  64  68 S6        30.14S
$$

CTZ002-004>006-009-010-012-RIZ004-006-007-MAZ004-011-015-270500-
SOUTHERN NEW ENGLAND
 IN CT

CITY           SKY/WX    TMP DP  RH WIND       PRES   REMARKS
BRADLEY INTL   MOCLDY    69  59  70 S9        30.15S
HARTFORD       PTCLDY    67  59  75 S8        30.17S
DANBURY        CLEAR     69  59  70 S5        30.18R
WTRBRY/OXFORD  CLEAR     64  57  77 CALM      30.19S
BRIDGEPORT     CLEAR     66  59  78 SW5       30.18R
MERIDEN        PTCLDY    66  58  75 S5        30.18S
NEW HAVEN      CLEAR     64  58  80 S5        30.19R
CHESTER        FAIR      63  61  94 SW7       30.21S
GROTON         CLEAR     60  57  89 S5        30.20S
WILLIMANTIC    PTCLDY    67  58  72 S7        30.19S

 IN RI

CITY           SKY/WX    TMP DP  RH WIND       PRES   REMARKS
PROVIDENCE     PTCLDY    66  59  78 SW8       30.20R
BLOCK ISLAND   PTCLDY    57  54  88 SW14      30.22S
WESTERLY       CLEAR     61  57  87 SW6       30.22R

 IN MA

CITY           SKY/WX    TMP DP  RH WIND       PRES   REMARKS
BOSTON         MOCLDY    70  61  73 SW16      30.15R
WORCESTER      MOCLDY    67  59  75 SW15      30.18S
WESTFIELD      MOCLDY    70  61  73 S10       30.15S
PROVINCETOWN   MOCLDY    59  54  82 SW18      30.19R
NANTUCKET      MOCLDY    60  58  92 SW15      30.24R
$$

ANZ330-335-338-340-345-350-353-355-270500-
COASTAL MARINE OBSERVATIONS


STATION/POSITION TIME  SKY/WX   TEMP    WIND        PRES    VSBY  WAVE
                                AIR SEA DIR/SP/G                  HT/PER
                 (UTC)          (F)     (DEG/KT/KT) (MB)    (MI)  (FT/S)
NY HARB ENTRANCE 0350            61 56  200/ 17/ 19 1021.6          4/ 5
4S FIRE IS       0403               55                N/A           5/ 6
20S FIRE ISLAND  0350            61 56  210/ 16/ 17 1022.6          4/ 5
GREAT SOUTH BAY  0330            63 66  240/ 17/ 23   N/A
23SW MTP         0350            58 53  210/ 14/ 16 1023.0          4/ 5
HUDSON CANYON    NOT AVBL
KINGS POINT      0300            67 59  200/ 11/ 12 1020.9
CENTRAL LI SOUND 0300            62 55  210/ 16/ 17   N/A
EASTERN LI SOUND 0300            59     210/  8/ 10   N/A
ROBBINS REEF     0300            74     210/ 17/ 23 1020.1
$$


>>>>>>>>>>>>>>>>>>>>>>>>>>>> KEY <<<<<<<<<<<<<<<<<<<<<<<<<<<
>                                                          <
>     SKY/WX - SKY CONDITION/PRESENT WEATHER               <
>     TMP    - TEMPERATURE IN FAHRENHEIT                   <
>     DP     - DEWPOINT IN FAHRENHEIT                      <
>     RH     - RELATIVE HUMIDITY IN PERCENT                <
>     WIND   - DIRECTION AND SPEED IN MPH                  <
>     PRES   - MEAN SEA LEVEL PRESSURE IN INCHES OF HG     <
>     WCI    - WIND CHILL INDEX                            <
>     VSB    - VISIBILITY IN MILES                         <
>     HX     - HEAT INDEX                                  <
>     TC     - TEMPERATURE IN CELSIUS                      <
>     VRB    - VARIABLE WIND DIRECTION                     <
>                                                          <
>>>>>>>>>>>>>>>>>>>>>>>>>>>> KEY <<<<<<<<<<<<<<<<<<<<<<<<<<<





USA.gov is the U.S. government's official web portal to all federal, state and local government web resources and services.